{"data":{"norad_id":58972,"intl_designator":"2024-031H","name":"STARLINK-31351","alt_names":[],"object_type":"PAYLOAD","status":"ACTIVE","operator":null,"country":"US","launch_date":"2024-02-15","launch_site_code":"AFWTR","launch_vehicle":null,"mission":null,"orbit_class":"UNKNOWN","rcs_meters":null,"size_class":null,"mass_kg":null,"dimensions":null,"purposes":["comms"],"wikipedia_slug":null,"has_3d_model":false,"image_url":null,"decayed_at":null,"tle_current":{"epoch":"2026-09-20T21:57:45.024480Z","epoch_age_seconds":119849,"freshness":"FRESH","line1":"1 58972U 24031H   26263.91510445 -.00001177  00000+0 -23690-4 0  9990","line2":"2 58972  53.1579 107.7228 0001181  90.5895 269.5243 15.34402393146441","mean_motion":15.34402393,"eccentricity":0.0001181,"inclination_deg":53.1579,"raan_deg":107.7228,"arg_perigee_deg":90.5895,"mean_anomaly_deg":269.5243,"bstar":-2.369e-5,"rev_number":14644,"period_min":93.847611719672,"perigee_km":461.88822532366,"apogee_km":463.50403010843,"semimajor_km":6840.833127716,"source":"CELESTRAK","updated_at":"2026-09-21T09:00:34.019954Z"}}}